[[{"header":{"parameterUnit":"m.s-1","parameterCategory":2,"la1":30.2991,"la2":30.254,"lo1":-89.0895,"lo2":-89.0444,"dy":0.0017,"dx":0.0017,"nx":28,"ny":28,"refTime":"2023-09-07T21:00:00:Z","depth":"0","parameterNumber":2,"parameterNumberName":"U-component_of_CURRENTS"},"data":[0,0,0,0,0,0,0,0,0,0,0,0,0,0,0,0,0,0,0,0,0,0,0,0,0,0,0,0,0,0,0,0,0,0,0,0,0,0,0,0,0,0,0,0,0,0,0,0,0,0,0,0,0,0,0,0,0,0,0.3679,0.368,0,0.3734,0.3734,0.3734,0.3761,0.3761,0.3761,0.3762,0.3797,0.3798,0.3798,0,0,0,0,0,0,0,0,0,0,0,0,0,0.3637,0.3637,0.3679,0.368,0.3681,0.3734,0.3734,0.3735,0.3761,0.3761,0.3761,0.3762,0.3797,0.3797,0.3798,0,0,0,0,0,0,0,0,0,0,0,0,0,0.3667,0.3637,0.3679,0.3702,0.3705,0.3733,0.3734,0.3735,0.3761,0.3761,0.3762,0.3762,0.3796,0.3797,0.3798,0.3799,0,0,0.3802,0.3802,0,0,0,0,0,0,0,0,0.3665,0.3668,0.3698,0.3701,0.3704,0.3743,0.3732,0.3756,0.3761,0.3737,0.3762,0.3762,0.3778,0.3781,0.3787,0.38,0.3802,0.3802,0.3803,0.3803,0.3803,0,0,0,0,0,0,0,0.3663,0.3666,0.3698,0.3699,0.3703,0.3724,0.3728,0.3737,0.3753,0.3739,0.3742,0.3752,0.378,0.3786,0.3788,0.3802,0.3802,0.3803,0.3804,0.3804,0.3853,0.3853,0,0,0,0,0,0,0.3659,0.3664,0.3696,0.37,0.3688,0.3724,0.3729,0.3728,0.3753,0.3758,0.3751,0.3753,0.3784,0.3787,0.379,0.3851,0.3803,0.3804,0.3805,0.3852,0.3853,0.3854,0,0,0,0,0,0,0.3658,0.3661,0.3694,0.3686,0.3692,0.3724,0.3724,0.3729,0.3741,0.3763,0.3768,0.3759,0.3784,0.3788,0.3801,0.385,0.3805,0.3806,0.3851,0.3852,0.3853,0.3935,0,0,0,0,0,0,0.3656,0.366,0.3657,0.3685,0.3692,0.3718,0.3724,0.373,0.3748,0.375,0.3771,0.3775,0.3785,0.3799,0.3802,0.3851,0.3806,0.3851,0.3852,0.3853,0.3931,0.3938,0.3944,0,0,0,0,0,0.3654,0.3647,0.3656,0.366,0.3687,0.3719,0.3724,0.3747,0.3748,0.3758,0.3767,0.3774,0.381,0.38,0.3804,0.3854,0.385,0.3852,0.3853,0.3928,0.3937,0.3944,0,0,0,0,0,0,0.3612,0.3651,0.3661,0.3661,0.3693,0.3724,0.3732,0.3747,0.3762,0.3763,0.3775,0.378,0.382,0.3808,0.3798,0.3867,0.3834,0.3836,0.389,0.3898,0.3905,0.3907,0.3807,0,0,0,0,0,0.3605,0.3617,0.3655,0.3654,0.367,0.37,0.3714,0.3736,0.3755,0.3762,0.3779,0.3795,0.3827,0.3837,0.3857,0.3881,0.3883,0.3915,0.3922,0.3928,0.3929,0.3987,0.4001,0.3858,0.3858,0.3858,0,0,0.3582,0.361,0.3611,0.3648,0.3669,0.3701,0.3709,0.3735,0.3767,0.3762,0.3799,0.3821,0.3837,0.3882,0.3898,0.3879,0.3963,0.3929,0.3935,0.3933,0.3991,0.4005,0.4017,0.3859,0.3859,0.3859,0,0,0.3557,0.3574,0.3582,0.3618,0.3665,0.3695,0.3705,0.3747,0.3772,0.3808,0.3826,0.3867,0.3894,0.3932,0.395,0.3995,0.4001,0.4005,0.4041,0.4099,0.4111,0.4123,0.4123,0.4133,0.4004,0.4004,0.4004,0,0.3535,0.3552,0.3588,0.3617,0.3649,0.3694,0.372,0.3757,0.38,0.3836,0.3826,0.3916,0.3925,0.4005,0.4022,0.4017,0.4027,0.4017,0.4111,0.4122,0.4132,0.413,0.4141,0.4008,0.4007,0.4007,0.4007,0,0.3527,0.3549,0.3558,0.3618,0.3655,0.3685,0.375,0.3792,0.3829,0.3879,0.3964,0.3987,0.4046,0.4062,0.4054,0.4143,0.4118,0.4121,0.4098,0.4152,0.4144,0.4154,0.4014,0.4012,0.4011,0.401,0,0,0.3462,0.3538,0.3544,0.3574,0.3663,0.369,0.3762,0.3847,0.3899,0.3966,0.4033,0.4108,0.4143,0.4162,0.4179,0.4216,0.4286,0.4196,0.4197,0.4207,0.4381,0.4243,0.424,0.4319,0.4322,0.4324,0.4339,0,0.345,0.3491,0.3546,0.3597,0.3625,0.3712,0.3776,0.3865,0.3937,0.4013,0.4091,0.4155,0.4178,0.4202,0.4262,0.4283,0.432,0.4279,0.4315,0.4315,0.4197,0.425,0.4092,0.4082,0.4349,0.435,0.4351,0,0.343,0.3465,0.3502,0.3598,0.3619,0.3663,0.3782,0.385,0.3987,0.4045,0.4156,0.4211,0.4305,0.4287,0.4402,0.4379,0.4387,0.4391,0.4393,0.4243,0.4197,0.4073,0.409,0.4025,0.4366,0.4365,0.4364,0,0.3366,0.344,0.3467,0.3499,0.3609,0.365,0.372,0.3857,0.3925,0.4061,0.4116,0.426,0.431,0.4384,0.443,0.4421,0.4515,0.4503,0.4388,0.4377,0.4235,0.4205,0.4201,0.4572,0.4572,0.4572,0.4572,0,0.3345,0.3371,0.3432,0.3451,0.3495,0.3596,0.3673,0.3769,0.39,0.3977,0.4124,0.4191,0.4338,0.4418,0.445,0.4453,0.4551,0.4396,0.4384,0.4251,0.4225,0.4153,0.4108,0.4573,0.4573,0.4572,0.4572,0,0.3296,0.3332,0.3362,0.3444,0.3463,0.3498,0.3621,0.3674,0.3821,0.3916,0.3957,0.4152,0.4248,0.4363,0.4458,0.4449,0.4339,0.4441,0.4243,0.4206,0.3981,0.3945,0.3746,0.3643,0.4294,0.4291,0.4288,0,0.3286,0.3289,0.3327,0.3319,0.3354,0.3414,0.3447,0.3606,0.3666,0.3878,0.3902,0.4049,0.4125,0.4228,0.4237,0.426,0.4208,0.4113,0.4057,0.3944,0.3899,0.3769,0.3689,0.3899,0.3894,0.3889,0.3886,0,0.3274,0.3274,0.329,0.3244,0.3249,0.3284,0.3348,0.3386,0.3569,0.3644,0.3749,0.3825,0.3941,0.391,0.3962,0.3965,0.3903,0.4011,0.398,0.3647,0.3423,0.3325,0.3886,0.3845,0.3849,0.3852,0.3854,0.3856,0.326,0.3241,0.3215,0.316,0.3148,0.3134,0.3125,0.3199,0.326,0.3349,0.3515,0.3559,0.3659,0.3692,0.3667,0.3558,0.3554,0.3484,0.3467,0.336,0.3195,0.3622,0.3513,0.3515,0.3516,0.3518,0.352,0,0.3226,0.3181,0.3127,0.3043,0.2957,0.3002,0.3024,0.2994,0.2977,0.3104,0.3157,0.323,0.3218,0.3293,0.3243,0.3093,0.2976,0.3021,0.2858,0.2823,0.3295,0.3217,0.2934,0.2934,0.2934,0.2934,0.2934,0.2935,0.3206,0.3121,0.3049,0.2853,0.2788,0.2674,0.2657,0.263,0.2683,0.2679,0.2707,0.2802,0.299,0.3006,0.2896,0.2819,0.2637,0.2451,0.2485,0.2894,0.2938,0.2981,0.2902,0.2558,0.2557,0.1924,0.1919,0.1915]},{"header":{"parameterUnit":"m.s-1","parameterCategory":2,"la1":30.2991,"la2":30.254,"lo1":-89.0895,"lo2":-89.0444,"dy":0.0017,"dx":0.0017,"nx":28,"ny":28,"refTime":"2023-09-07T21:00:00:Z","depth":"0","parameterNumber":3,"parameterNumberName":"V-component_of_CURRENTS"},"data":[0,0,0,0,0,0,0,0,0,0,0,0,0,0,0,0,0,0,0,0,0,0,0,0,0,0,0,0,0,0,0,0,0,0,0,0,0,0,0,0,0,0,0,0,0,0,0,0,0,0,0,0,0,0,0,0,0,0,0.0146,0.0146,0,0.0083,0.0082,0.0081,0.0033,0.0033,0.0033,0.0032,-0.0051,-0.0053,-0.0055,0,0,0,0,0,0,0,0,0,0,0,0,0,0.0141,0.0141,0.0146,0.0146,0.0145,0.0083,0.0082,0.0081,0.0033,0.0033,0.0033,0.0032,-0.005,-0.0053,-0.0055,0,0,0,0,0,0,0,0,0,0,0,0,0,0.0114,0.0142,0.0147,0.0116,0.0113,0.0083,0.0082,0.0081,0.0033,0.0033,0.0033,0.0032,-0.0049,-0.0052,-0.0055,-0.007,0,0,-0.0065,-0.0066,0,0,0,0,0,0,0,0,0.0116,0.0114,0.0121,0.0118,0.0115,0.0069,0.005,0.003,0.0033,0.006,0.0032,0.0032,-0.001,-0.0017,-0.0032,-0.0074,-0.0078,-0.0065,-0.0067,-0.0068,-0.0069,0,0,0,0,0,0,0,0.0118,0.0116,0.0118,0.0121,0.0117,0.0077,0.0073,0.0045,0.0024,0.0058,0.0055,0.0053,-0.0013,-0.0029,-0.0035,-0.0079,-0.0065,-0.0068,-0.007,-0.0071,-0.0138,-0.0138,0,0,0,0,0,0,0.0137,0.0118,0.012,0.0117,0.0118,0.0078,0.0074,0.0081,0.0025,0.0017,0.0053,0.0051,-0.0024,-0.0031,-0.0038,-0.0046,-0.0068,-0.0071,-0.0073,-0.0139,-0.0138,-0.0138,0,0,0,0,0,0,0.0137,0.0138,0.0123,0.0118,0.0113,0.0079,0.0087,0.008,0.007,0.0022,0.0013,0.0052,-0.0024,-0.0033,-0.0056,-0.005,-0.0073,-0.0076,-0.0139,-0.0139,-0.0138,-0.0069,0,0,0,0,0,0,0.0138,0.0139,0.0149,0.012,0.0115,0.0119,0.0087,0.0079,0.007,0.0066,0.0018,0.0009,-0.0025,-0.0051,-0.0059,-0.0054,-0.0078,-0.0139,-0.0139,-0.0138,-0.0072,-0.0067,-0.0063,0,0,0,0,0,0.0138,0.0159,0.015,0.015,0.0131,0.012,0.0114,0.0085,0.0071,0.0073,0.0037,0.0011,-0.0056,-0.0053,-0.0063,-0.0059,-0.0139,-0.0139,-0.0138,-0.0074,-0.0068,-0.0063,0,0,0,0,0,0,0.0161,0.0156,0.0145,0.0163,0.0148,0.0113,0.0113,0.0094,0.0066,0.0062,0.0014,0.0003,-0.0015,-0.0047,-0.0042,-0.0079,-0.0103,-0.0104,-0.005,-0.0045,-0.0041,-0.0007,-0.0081,0,0,0,0,0,0.0173,0.0188,0.017,0.0184,0.018,0.0147,0.0139,0.0122,0.0095,0.0082,0.0049,0.001,-0.0024,-0.004,-0.0073,-0.0089,-0.0099,-0.0095,-0.009,-0.0086,-0.0066,-0.0077,-0.0071,-0.0138,-0.0138,-0.0138,0,0,0.0186,0.0185,0.0193,0.019,0.0173,0.0179,0.0141,0.0138,0.0139,0.0078,0.0068,0.0027,-0.0025,-0.0045,-0.0057,-0.0069,-0.0073,-0.0086,-0.0082,-0.0064,-0.0076,-0.007,-0.0064,-0.0138,-0.0138,-0.0138,0,0,0.0224,0.0219,0.0245,0.0237,0.0226,0.0206,0.0211,0.0184,0.0167,0.0152,0.0106,0.0073,0.0026,-0.001,-0.0035,-0.0025,-0.0047,-0.0039,0.001,-0.0001,0.0005,0.001,0.0012,0.0017,-0.0038,-0.0038,-0.0038,0,0.0238,0.0271,0.0249,0.0268,0.0269,0.0226,0.0249,0.0225,0.0193,0.0188,0.0161,0.0095,0.0043,0.0022,0.0017,-0.0013,-0.0014,-0.0005,0.0008,0.0013,0.0017,0.0017,0.0022,-0.0035,-0.0035,-0.0035,-0.0036,0,0.0295,0.0316,0.0329,0.0342,0.0338,0.035,0.032,0.0312,0.0284,0.0261,0.0237,0.0167,0.0135,0.0101,0.0059,0.0059,0.0051,0.0017,0.0001,0.0028,0.0026,0.003,-0.003,-0.0031,-0.0032,-0.0033,0,0,0.0338,0.0366,0.0372,0.0393,0.0379,0.0388,0.0386,0.038,0.0398,0.0343,0.0361,0.0274,0.0245,0.0214,0.0155,0.0131,0.0142,0.0094,0.0092,0.011,0.0139,0.0115,0.0116,0.0117,0.0118,0.0118,0.0128,0,0.0389,0.0452,0.0444,0.0494,0.0521,0.0484,0.0495,0.048,0.0457,0.0462,0.0384,0.0369,0.0285,0.0272,0.0239,0.0171,0.0154,0.0144,0.0098,0.0097,0.0084,0.012,0.0137,0.0146,0.0131,0.0132,0.0132,0,0.0447,0.0485,0.0551,0.0585,0.0594,0.0615,0.0633,0.0637,0.0618,0.0601,0.057,0.0512,0.0465,0.0389,0.0307,0.0311,0.0239,0.0178,0.0177,0.0138,0.0081,0.0113,0.0152,0.004,0.0137,0.0137,0.0136,0,0.05,0.0555,0.0617,0.0628,0.0659,0.0682,0.0694,0.0689,0.0713,0.0697,0.0719,0.0644,0.0626,0.0526,0.0385,0.0357,0.0305,0.0246,0.0161,0.0158,0.0155,0.0151,0.0093,0.02,0.02,0.02,0.02,0,0.0556,0.0602,0.0656,0.069,0.0771,0.0759,0.0834,0.083,0.085,0.0909,0.0808,0.084,0.0661,0.0595,0.0454,0.0334,0.036,0.0191,0.0164,0.0178,0.0176,0.0062,-0.004,0.02,0.02,0.02,0.02,0,0.0599,0.0631,0.071,0.0774,0.0802,0.0861,0.0932,0.0983,0.099,0.1068,0.1067,0.1004,0.0919,0.0736,0.058,0.0438,0.0232,0.0249,0.0282,0.0258,0.0058,-0.0042,-0.0132,-0.0188,0.0168,0.0168,0.0167,0,0.0625,0.0676,0.0784,0.0844,0.088,0.0965,0.1026,0.1053,0.1115,0.1179,0.123,0.1165,0.1147,0.0909,0.0634,0.04,0.0244,0.0249,0.0178,0.007,-0.0061,-0.0116,-0.0161,0.0205,0.0205,0.0205,0.0205,0,0.0679,0.0723,0.0794,0.0926,0.1012,0.1108,0.12,0.1274,0.1325,0.1403,0.1489,0.1481,0.1251,0.1023,0.0679,0.0494,0.0161,0.024,0.0122,-0.0034,-0.0091,-0.0165,0.0179,0.0205,0.0205,0.0205,0.0205,0.0205,0.0722,0.0787,0.0891,0.1011,0.1112,0.1237,0.1327,0.1437,0.1568,0.1695,0.1682,0.1721,0.1379,0.0914,0.0647,0.0185,0.0154,0.0044,-0.0063,-0.0103,-0.0175,0.0174,0.0162,0.0162,0.0162,0.0162,0.0161,0,0.0779,0.0853,0.0965,0.1109,0.1217,0.1264,0.143,0.1533,0.1707,0.1841,0.1918,0.18,0.1366,0.0917,0.0284,-0.004,-0.0159,-0.0224,-0.0295,-0.0326,-0.0006,-0.0021,-0.0066,-0.0066,-0.0065,-0.0065,-0.0065,-0.0065,0.0812,0.0924,0.0983,0.1168,0.1264,0.1418,0.1518,0.1688,0.1826,0.201,0.2067,0.2072,0.1748,0.0596,-0.0153,-0.0337,-0.0531,-0.0595,-0.0704,-0.0492,-0.0474,-0.0457,-0.0492,-0.0635,-0.0636,-0.0944,-0.0947,-0.095]}],[{"header":{"parameterUnit":"m.s-1","parameterCategory":2,"la1":30.2991,"la2":30.254,"lo1":-89.0895,"lo2":-89.0444,"dy":0.0017,"dx":0.0017,"nx":28,"ny":28,"refTime":"2023-09-07T21:00:00:Z","depth":"2","parameterNumber":2,"parameterNumberName":"U-component_of_CURRENTS"},"data":[0,0,0,0,0,0,0,0,0,0,0,0,0,0,0,0,0,0,0,0,0,0,0,0,0,0,0,0,0,0,0,0,0,0,0,0,0,0,0,0,0,0,0,0,0,0,0,0,0,0,0,0,0,0,0,0,0,0,0.2644,0.2645,0,0.2656,0.2656,0.2655,0.2704,0.2706,0.2708,0.271,0.2749,0.2749,0.2748,0,0,0,0,0,0,0,0,0,0,0,0,0,0.2583,0.2583,0.2644,0.2645,0.2646,0.2657,0.2656,0.2655,0.2704,0.2706,0.2709,0.2711,0.275,0.2749,0.2748,0,0,0,0,0,0,0,0,0,0,0,0,0,0.2595,0.2584,0.2644,0.2678,0.2682,0.2657,0.2656,0.2655,0.2704,0.2707,0.271,0.2712,0.275,0.2749,0.2748,0.2682,0,0,0.2744,0.2744,0,0,0,0,0,0,0,0,0.2595,0.2596,0.2672,0.2676,0.268,0.269,0.2649,0.2668,0.2703,0.2686,0.271,0.2714,0.2736,0.2736,0.2718,0.2683,0.2685,0.2744,0.2743,0.2743,0.2742,0,0,0,0,0,0,0,0.2594,0.2596,0.264,0.2673,0.2678,0.2667,0.2671,0.2652,0.2688,0.2688,0.2694,0.2708,0.2737,0.2719,0.272,0.2686,0.2744,0.2743,0.2742,0.2742,0.2754,0.2755,0,0,0,0,0,0,0.2611,0.2595,0.264,0.2641,0.2654,0.2666,0.2671,0.2676,0.2687,0.2694,0.2706,0.2711,0.272,0.2721,0.2722,0.279,0.2743,0.2742,0.2741,0.2753,0.2755,0.2756,0,0,0,0,0,0,0.261,0.2614,0.2639,0.2626,0.263,0.2666,0.267,0.2675,0.2687,0.2703,0.2709,0.2717,0.2722,0.2723,0.2756,0.2787,0.2741,0.274,0.2752,0.2754,0.2755,0.2834,0,0,0,0,0,0,0.2607,0.2613,0.2614,0.2627,0.2632,0.2649,0.2669,0.2674,0.2694,0.2701,0.2713,0.2719,0.2725,0.2758,0.2755,0.2785,0.2739,0.2751,0.2753,0.2755,0.283,0.2838,0.2845,0,0,0,0,0,0.2605,0.2602,0.2614,0.262,0.2635,0.2651,0.265,0.2679,0.2692,0.2698,0.2728,0.272,0.2769,0.2758,0.2754,0.2784,0.275,0.2752,0.2755,0.2827,0.2837,0.2845,0,0,0,0,0,0,0.2568,0.2607,0.2621,0.2628,0.2651,0.2663,0.267,0.2682,0.2701,0.2719,0.2726,0.2734,0.2776,0.276,0.2748,0.2793,0.2759,0.276,0.2815,0.2824,0.2831,0.2827,0.2738,0,0,0,0,0,0.2562,0.2577,0.2608,0.2615,0.2629,0.2646,0.2654,0.2679,0.2702,0.2713,0.2728,0.2747,0.2771,0.2786,0.2794,0.2805,0.2808,0.2823,0.2831,0.2837,0.2831,0.2894,0.2907,0.2763,0.2763,0.2763,0,0,0.2555,0.2574,0.2586,0.2609,0.2625,0.2647,0.2657,0.2683,0.2714,0.2712,0.2753,0.277,0.278,0.2817,0.2833,0.2815,0.2877,0.284,0.2846,0.2835,0.2898,0.2912,0.2925,0.2765,0.2765,0.2764,0,0,0.255,0.2562,0.2579,0.26,0.2639,0.2652,0.2667,0.2696,0.2726,0.2764,0.2783,0.2827,0.284,0.287,0.2882,0.2925,0.2915,0.2922,0.2956,0.3019,0.3032,0.3043,0.3057,0.3069,0.2926,0.2926,0.2926,0,0.2543,0.256,0.2584,0.2605,0.263,0.266,0.2686,0.271,0.2752,0.2786,0.2798,0.286,0.2871,0.2927,0.2951,0.2945,0.2959,0.2927,0.3031,0.3042,0.3052,0.3064,0.3076,0.293,0.293,0.2929,0.2929,0,0.2555,0.2572,0.2582,0.2624,0.2649,0.2675,0.2725,0.2762,0.2802,0.2837,0.2912,0.2936,0.2982,0.299,0.2984,0.3056,0.3034,0.3038,0.3013,0.3072,0.3079,0.3091,0.2936,0.2935,0.2933,0.2932,0,0,0.2531,0.2583,0.2587,0.261,0.2665,0.2686,0.2749,0.2813,0.2864,0.292,0.2989,0.3039,0.3064,0.3077,0.3083,0.3122,0.3206,0.3107,0.3109,0.3127,0.3315,0.321,0.3211,0.3237,0.324,0.3242,0.3289,0,0.2535,0.2571,0.2602,0.2643,0.2667,0.2725,0.2777,0.2846,0.291,0.2982,0.3043,0.3103,0.3096,0.3126,0.3175,0.32,0.324,0.319,0.3248,0.3248,0.3154,0.3223,0.2973,0.2987,0.33,0.3301,0.3303,0,0.2532,0.2559,0.2596,0.2661,0.268,0.2712,0.2809,0.2864,0.2978,0.3038,0.3124,0.3164,0.3242,0.3224,0.3319,0.329,0.3308,0.3316,0.3319,0.3197,0.3164,0.2979,0.2995,0.3321,0.332,0.3318,0.3317,0,0.2494,0.2552,0.2579,0.2601,0.268,0.272,0.2774,0.2881,0.2943,0.3074,0.3129,0.3236,0.3293,0.3351,0.3379,0.3365,0.346,0.3453,0.3369,0.336,0.3143,0.3111,0.3521,0.3521,0.3521,0.352,0.352,0,0.2472,0.2496,0.2563,0.2577,0.2629,0.2699,0.277,0.2854,0.2967,0.3035,0.3149,0.3209,0.333,0.3394,0.3412,0.3421,0.3505,0.3378,0.3377,0.316,0.313,0.3412,0.3399,0.3522,0.3522,0.3521,0.3521,0,0.242,0.2462,0.2498,0.2579,0.2606,0.2647,0.2754,0.2803,0.2925,0.3018,0.3061,0.3216,0.3305,0.3383,0.3476,0.345,0.3471,0.3449,0.3159,0.3123,0.3316,0.3307,0.337,0.3367,0.3364,0.3362,0.336,0,0.2391,0.2401,0.2483,0.2503,0.2536,0.2604,0.2644,0.2773,0.2824,0.2998,0.3027,0.3163,0.3225,0.3319,0.3317,0.3337,0.342,0.3094,0.3023,0.3314,0.3308,0.3302,0.3296,0.2765,0.2758,0.2753,0.2749,0,0.234,0.2372,0.2405,0.2448,0.2484,0.2525,0.2593,0.2627,0.277,0.284,0.2932,0.2996,0.3099,0.3019,0.3055,0.3031,0.3074,0.2983,0.3394,0.2837,0.2747,0.2739,0.2753,0.2701,0.2706,0.2709,0.2712,0.2714,0.23,0.231,0.2354,0.2385,0.2419,0.2431,0.2423,0.2488,0.2543,0.2614,0.2752,0.2759,0.2805,0.2738,0.2658,0.2606,0.2818,0.2693,0.2709,0.273,0.2648,0.2557,0.2458,0.2461,0.2464,0.2467,0.2469,0,0.2242,0.2258,0.2284,0.23,0.2281,0.2342,0.2364,0.2321,0.2311,0.2413,0.2461,0.2293,0.2244,0.2292,0.2138,0.2131,0.2109,0.2044,0.1996,0.2046,0.209,0.1973,0.1605,0.1602,0.1599,0.1597,0,0,0.2216,0.2205,0.2211,0.2155,0.2156,0.2088,0.207,0.203,0.2054,0.2019,0.2006,0.2175,0.224,0.1902,0.1854,0.1701,0.186,0.1636,0.2335,0.233,0.237,0.2476,0.2355,0,0,0,0,0]},{"header":{"parameterUnit":"m.s-1","parameterCategory":2,"la1":30.2991,"la2":30.254,"lo1":-89.0895,"lo2":-89.0444,"dy":0.0017,"dx":0.0017,"nx":28,"ny":28,"refTime":"2023-09-07T21:00:00:Z","depth":"2","parameterNumber":3,"parameterNumberName":"V-component_of_CURRENTS"},"data":[0,0,0,0,0,0,0,0,0,0,0,0,0,0,0,0,0,0,0,0,0,0,0,0,0,0,0,0,0,0,0,0,0,0,0,0,0,0,0,0,0,0,0,0,0,0,0,0,0,0,0,0,0,0,0,0,0,0,0.0244,0.0243,0,0.0189,0.0188,0.0188,0.0141,0.0141,0.0141,0.014,0.0075,0.0073,0.0072,0,0,0,0,0,0,0,0,0,0,0,0,0,0.0244,0.0244,0.0244,0.0243,0.0243,0.0189,0.0188,0.0187,0.0142,0.0141,0.0141,0.014,0.0075,0.0073,0.0072,0,0,0,0,0,0,0,0,0,0,0,0,0,0.0221,0.0245,0.0244,0.0215,0.0212,0.019,0.0188,0.0187,0.0142,0.0141,0.0141,0.014,0.0076,0.0074,0.0072,0.0069,0,0,0.0065,0.0064,0,0,0,0,0,0,0,0,0.0222,0.0221,0.0219,0.0217,0.0213,0.0173,0.0164,0.0148,0.0142,0.0166,0.014,0.014,0.0108,0.0103,0.0092,0.0066,0.0063,0.0065,0.0064,0.0063,0.0062,0,0,0,0,0,0,0,0.0224,0.0222,0.022,0.0219,0.0215,0.0182,0.0179,0.0161,0.0139,0.0164,0.0161,0.0158,0.0106,0.0094,0.009,0.0062,0.0065,0.0063,0.0062,0.0061,0.0018,0.0018,0,0,0,0,0,0,0.0238,0.0224,0.0222,0.0219,0.0218,0.0183,0.0179,0.0185,0.014,0.0133,0.0158,0.0156,0.0098,0.0093,0.0088,0.0085,0.0063,0.0061,0.0059,0.0018,0.0018,0.0018,0,0,0,0,0,0,0.0239,0.0239,0.0224,0.0221,0.0217,0.0184,0.0191,0.0184,0.0173,0.0136,0.0128,0.0154,0.0097,0.0091,0.0072,0.0082,0.006,0.0058,0.0018,0.0018,0.0018,0.0078,0,0,0,0,0,0,0.0239,0.024,0.0248,0.0222,0.0218,0.0218,0.0191,0.0184,0.0173,0.0169,0.013,0.0123,0.0096,0.0076,0.007,0.0079,0.0056,0.0018,0.0018,0.0018,0.0076,0.008,0.0084,0,0,0,0,0,0.0239,0.0256,0.0249,0.0249,0.0231,0.0218,0.0213,0.0186,0.0173,0.0173,0.0144,0.0124,0.0073,0.0074,0.0068,0.0076,0.0017,0.0018,0.0018,0.0074,0.0079,0.0084,0,0,0,0,0,0,0.0257,0.0252,0.0244,0.0257,0.0242,0.0211,0.021,0.0192,0.0169,0.0166,0.0128,0.0119,0.0105,0.0082,0.0084,0.0063,0.0042,0.0041,0.0086,0.0091,0.0095,0.0121,0.0054,0,0,0,0,0,0.0267,0.0281,0.0263,0.0274,0.027,0.0241,0.0233,0.0216,0.0193,0.0182,0.0154,0.0125,0.0102,0.009,0.0066,0.0058,0.0037,0.0057,0.0061,0.0065,0.0081,0.005,0.0053,0.0019,0.0019,0.0019,0,0,0.0276,0.0276,0.0283,0.0279,0.0265,0.0268,0.0234,0.0229,0.023,0.018,0.0173,0.0139,0.0102,0.009,0.0082,0.0072,0.0062,0.0065,0.0069,0.0083,0.0051,0.0054,0.0057,0.0019,0.0019,0.0019,0,0,0.0304,0.0303,0.0323,0.0316,0.0306,0.029,0.0293,0.0267,0.0254,0.0242,0.0205,0.0181,0.0145,0.0122,0.0104,0.0117,0.0084,0.0106,0.015,0.012,0.0123,0.0125,0.0102,0.0102,0.0109,0.0109,0.0109,0,0.0313,0.034,0.0324,0.0339,0.0342,0.0306,0.0324,0.0305,0.0276,0.0274,0.0248,0.02,0.0162,0.0153,0.0152,0.0129,0.0107,0.0136,0.0127,0.0129,0.013,0.0105,0.0104,0.0112,0.0112,0.0112,0.0111,0,0.0355,0.0374,0.0385,0.0397,0.0395,0.0405,0.0383,0.0378,0.0356,0.0336,0.0319,0.0266,0.0239,0.0218,0.0187,0.0182,0.0162,0.0135,0.0119,0.0137,0.011,0.0108,0.0116,0.0115,0.0115,0.0114,0,0,0.0384,0.0411,0.0415,0.0437,0.043,0.0438,0.0442,0.044,0.0455,0.041,0.0421,0.0363,0.0333,0.0312,0.0267,0.0239,0.0219,0.0197,0.0194,0.0182,0.0159,0.014,0.0135,0.0189,0.0189,0.0189,0.0136,0,0.0422,0.0475,0.0472,0.0516,0.0541,0.0519,0.0531,0.0523,0.0505,0.0504,0.0445,0.0432,0.0369,0.0358,0.0319,0.0247,0.0217,0.0237,0.0136,0.0133,0.012,0.0133,0.0149,0.0103,0.0134,0.0133,0.0133,0,0.0466,0.05,0.0557,0.0594,0.0603,0.0621,0.0647,0.0653,0.0635,0.062,0.0591,0.054,0.0494,0.0434,0.0328,0.0343,0.0261,0.02,0.0195,0.0159,0.011,0.0088,0.0097,0.0129,0.0129,0.013,0.013,0,0.0511,0.0558,0.0612,0.0624,0.0657,0.0681,0.0695,0.0694,0.0717,0.0698,0.0708,0.0634,0.0607,0.0497,0.0356,0.0343,0.0238,0.02,0.0107,0.0105,0.0091,0.0087,0.0128,0.0128,0.0128,0.0129,0.0129,0,0.0559,0.06,0.0643,0.0675,0.0745,0.0742,0.0808,0.0807,0.0821,0.0864,0.0777,0.0786,0.0621,0.0532,0.0394,0.025,0.0262,0.0126,0.0093,0.0111,0.011,0.011,0.0109,0.0127,0.0127,0.0127,0.0128,0,0.0599,0.0625,0.0693,0.0748,0.0773,0.0824,0.0888,0.0931,0.0932,0.0985,0.0983,0.0905,0.0793,0.062,0.0443,0.0312,0.0165,0.0108,0.0143,0.0115,0.0044,0.0046,0.001,0.0008,0.0008,0.0007,0.0006,0,0.0625,0.0668,0.0755,0.0803,0.0834,0.0908,0.0962,0.0988,0.1039,0.1062,0.1094,0.1003,0.0952,0.0685,0.044,0.0206,0.0167,0.0059,0.0034,0.0062,0.0033,0.0037,0.004,0.0035,0.0035,0.0034,0.0034,0,0.0675,0.0707,0.0766,0.087,0.0942,0.1026,0.1105,0.1163,0.1202,0.1246,0.1276,0.1237,0.0991,0.0752,0.0426,0.0262,0.0096,0.0046,0.0068,0.0064,0.0082,0.0055,0.0058,0.0032,0.0032,0.0032,0.0032,0.0032,0.0712,0.0761,0.0841,0.0938,0.1023,0.1127,0.1203,0.1287,0.1381,0.1445,0.1407,0.1352,0.1082,0.0667,0.0385,0.0085,0.01,-0.0017,-0.0014,-0.0012,0.0003,0.0018,-0.0042,-0.0042,-0.0042,-0.0042,-0.0042,0,0.0756,0.0811,0.0899,0.1013,0.1103,0.1147,0.1285,0.1359,0.1477,0.1529,0.155,0.1286,0.1016,0.0703,0.0267,0.001,-0.0012,-0.0083,-0.0051,-0.0047,-0.0043,-0.003,-0.0084,-0.0085,-0.0085,-0.0086,0,0,0.0778,0.0863,0.0905,0.1054,0.1135,0.1264,0.1346,0.146,0.1533,0.1585,0.1551,0.1481,0.1106,0.0782,0.0428,0.0175,0.0124,0.012,0.0181,0.0265,0.0271,0.002,0.0049,0,0,0,0,0]}],[{"header":{"parameterUnit":"m.s-1","parameterCategory":2,"la1":30.2991,"la2":30.254,"lo1":-89.0895,"lo2":-89.0444,"dy":0.0017,"dx":0.0017,"nx":28,"ny":28,"refTime":"2023-09-07T21:00:00:Z","depth":"4","parameterNumber":2,"parameterNumberName":"U-component_of_CURRENTS"},"data":[0,0,0,0,0,0,0,0,0,0,0,0,0,0,0,0,0,0,0,0,0,0,0,0,0,0,0,0,0,0,0,0,0,0,0,0,0,0,0,0,0,0,0,0,0,0,0,0,0,0,0,0,0,0,0,0,0,0,0.1508,0.1509,0,0.1539,0.1539,0.1539,0.1567,0.1567,0.1568,0.1568,0.1617,0.1618,0.1619,0,0,0,0,0,0,0,0,0,0,0,0,0,0.1466,0.1466,0.1508,0.1509,0.1509,0.1539,0.1539,0.1539,0.1566,0.1567,0.1568,0.1568,0.1617,0.1618,0.1619,0,0,0,0,0,0,0,0,0,0,0,0,0,0.1487,0.1466,0.1508,0.1527,0.153,0.1539,0.1539,0.1539,0.1566,0.1567,0.1568,0.1568,0.1617,0.1618,0.1619,0.1613,0,0,0.1623,0.1624,0,0,0,0,0,0,0,0,0.1486,0.1489,0.1524,0.1526,0.1529,0.1551,0.1542,0.1565,0.1566,0.1551,0.1568,0.1569,0.1597,0.16,0.1602,0.1616,0.1618,0.1623,0.1624,0.1625,0.1625,0,0,0,0,0,0,0,0.1485,0.1488,0.1519,0.1525,0.1527,0.1532,0.1536,0.1546,0.1569,0.1552,0.1555,0.156,0.1599,0.1601,0.1603,0.1618,0.1623,0.1625,0.1625,0.1626,0.1712,0.1713,0,0,0,0,0,0,0.1484,0.1486,0.1518,0.152,0.151,0.1533,0.1537,0.1542,0.1568,0.1573,0.156,0.1561,0.1598,0.1602,0.1605,0.1681,0.1625,0.1626,0.1627,0.171,0.1712,0.1714,0,0,0,0,0,0,0.1483,0.1486,0.1516,0.1505,0.1509,0.1533,0.1538,0.1542,0.1579,0.1574,0.1579,0.1597,0.1599,0.1603,0.164,0.168,0.1627,0.1628,0.1709,0.1711,0.1713,0.178,0,0,0,0,0,0,0.1481,0.1485,0.1508,0.1505,0.151,0.1542,0.1538,0.1542,0.158,0.1584,0.1607,0.1611,0.16,0.1638,0.1641,0.1681,0.1629,0.1707,0.171,0.1712,0.1776,0.1784,0.1792,0,0,0,0,0,0.148,0.1495,0.1509,0.1514,0.1534,0.1543,0.1547,0.1564,0.1582,0.1601,0.1617,0.1612,0.1658,0.164,0.1643,0.1685,0.1705,0.1709,0.1712,0.1773,0.1783,0.1791,0,0,0,0,0,0,0.149,0.15,0.1514,0.1535,0.1552,0.1549,0.1573,0.1587,0.1615,0.163,0.1627,0.1631,0.1679,0.1672,0.1652,0.1717,0.1683,0.1687,0.1728,0.1737,0.1745,0.1726,0.163,0,0,0,0,0,0.1503,0.152,0.1529,0.1551,0.1563,0.1579,0.1594,0.1606,0.1621,0.1636,0.1652,0.1671,0.1689,0.1706,0.1716,0.1752,0.1753,0.1782,0.179,0.1797,0.1784,0.1836,0.1847,0.1725,0.1725,0.1725,0,0,0.1514,0.1523,0.1535,0.1556,0.1572,0.159,0.159,0.1621,0.1644,0.1636,0.1685,0.1701,0.1704,0.1742,0.1763,0.1746,0.1833,0.1801,0.1806,0.1789,0.184,0.1852,0.1863,0.1727,0.1727,0.1726,0,0,0.153,0.1555,0.1572,0.1588,0.1619,0.1624,0.1642,0.1664,0.1688,0.1728,0.1732,0.1766,0.1799,0.1803,0.181,0.1866,0.1872,0.1889,0.1915,0.1967,0.1977,0.1986,0.2009,0.2019,0.1894,0.1894,0.1894,0,0.1547,0.1567,0.1581,0.16,0.1618,0.1644,0.1666,0.1688,0.1722,0.1747,0.1754,0.1817,0.182,0.1861,0.1876,0.1884,0.191,0.1881,0.1978,0.1986,0.1994,0.2015,0.2026,0.1898,0.1897,0.1897,0.1896,0,0.1562,0.1595,0.1607,0.1638,0.1659,0.1685,0.1709,0.1744,0.1781,0.1805,0.1871,0.188,0.1921,0.1932,0.1917,0.1983,0.1983,0.1983,0.1953,0.2011,0.2029,0.2039,0.1903,0.1901,0.19,0.1899,0,0,0.1554,0.1608,0.1618,0.1641,0.1683,0.1696,0.1741,0.1783,0.1826,0.1873,0.1931,0.1959,0.1992,0.1999,0.2008,0.2034,0.2109,0.2037,0.2038,0.2056,0.2222,0.209,0.2088,0.2147,0.2148,0.215,0.2213,0,0.1567,0.1608,0.1632,0.1678,0.17,0.1735,0.1772,0.1817,0.1868,0.1932,0.1967,0.2028,0.2015,0.2054,0.2085,0.2106,0.2138,0.2091,0.2163,0.2164,0.2039,0.2095,0.2156,0.2221,0.2223,0.2224,0.2226,0,0.1566,0.1597,0.1645,0.1699,0.1714,0.1753,0.182,0.186,0.1944,0.1987,0.2061,0.2102,0.216,0.2141,0.2216,0.2199,0.2215,0.2216,0.222,0.2072,0.205,0.215,0.2243,0.2242,0.224,0.2239,0.2238,0,0.1533,0.1599,0.164,0.1659,0.1727,0.1768,0.1816,0.1893,0.1937,0.2047,0.21,0.2181,0.2241,0.2279,0.2298,0.2281,0.2364,0.2346,0.2236,0.2227,0.2296,0.2286,0.2395,0.2395,0.2395,0.2394,0.2394,0,0.1509,0.1546,0.1642,0.1661,0.1721,0.1777,0.1851,0.1906,0.2001,0.2057,0.2151,0.2203,0.2284,0.2341,0.234,0.2319,0.2417,0.2236,0.2237,0.2324,0.2316,0.2304,0.2292,0.2397,0.2396,0.2396,0.2395,0,0.1454,0.1516,0.1571,0.1671,0.1708,0.1758,0.1867,0.191,0.2016,0.2096,0.2139,0.2254,0.2323,0.2374,0.2432,0.2362,0.2355,0.2324,0.2411,0.2416,0.2169,0.2161,0.2197,0.2193,0.2189,0.2186,0.2184,0,0.142,0.1448,0.1573,0.1616,0.1672,0.1757,0.1803,0.1908,0.1951,0.2102,0.2126,0.2248,0.2305,0.2281,0.2346,0.2346,0.2314,0.229,0.2209,0.2153,0.2151,0.2148,0.2144,0.2179,0.2178,0.2177,0.2176,0,0.1359,0.1427,0.1477,0.1575,0.1645,0.1693,0.1778,0.1795,0.1907,0.2021,0.2058,0.2091,0.2165,0.2196,0.2219,0.2211,0.229,0.2253,0.2259,0.2183,0.2131,0.2132,0.2132,0.2164,0.2166,0.2167,0.2167,0,0.1323,0.1349,0.1439,0.1508,0.1589,0.1611,0.1661,0.1703,0.1752,0.1903,0.1916,0.2038,0.2147,0.2129,0.2151,0.2135,0.209,0.1998,0.2016,0.203,0.1944,0.1852,0.1799,0,0,0,0,0,0.1274,0.1294,0.1359,0.1418,0.1494,0.1538,0.1627,0.1674,0.1782,0.1758,0.1826,0.1879,0.1911,0.1979,0.1928,0.2083,0.2105,0.2014,0.2011,0.2097,0.2111,0.2024,0,0,0,0,0,0,0.1241,0.1298,0.1325,0.1331,0.1351,0.1407,0.1459,0.1533,0.1521,0.1643,0.1673,0.1761,0.1827,0.192,0.1891,0.1909,0.1866,0.2087,0.2082,0.209,0.2102,0.2113,0.2028,0,0,0,0,0]},{"header":{"parameterUnit":"m.s-1","parameterCategory":2,"la1":30.2991,"la2":30.254,"lo1":-89.0895,"lo2":-89.0444,"dy":0.0017,"dx":0.0017,"nx":28,"ny":28,"refTime":"2023-09-07T21:00:00:Z","depth":"4","parameterNumber":3,"parameterNumberName":"V-component_of_CURRENTS"},"data":[0,0,0,0,0,0,0,0,0,0,0,0,0,0,0,0,0,0,0,0,0,0,0,0,0,0,0,0,0,0,0,0,0,0,0,0,0,0,0,0,0,0,0,0,0,0,0,0,0,0,0,0,0,0,0,0,0,0,0.0233,0.0233,0,0.0203,0.0202,0.0202,0.0185,0.0185,0.0185,0.0185,0.0156,0.0155,0.0154,0,0,0,0,0,0,0,0,0,0,0,0,0,0.0229,0.0229,0.0233,0.0233,0.0233,0.0203,0.0202,0.0202,0.0185,0.0185,0.0185,0.0185,0.0156,0.0155,0.0154,0,0,0,0,0,0,0,0,0,0,0,0,0,0.0217,0.0229,0.0233,0.0221,0.022,0.0203,0.0202,0.0202,0.0185,0.0185,0.0185,0.0185,0.0156,0.0155,0.0154,0.0145,0,0,0.015,0.015,0,0,0,0,0,0,0,0,0.0218,0.0217,0.0223,0.0222,0.0221,0.0199,0.019,0.0183,0.0185,0.0197,0.0185,0.0185,0.0171,0.0169,0.0161,0.0144,0.0143,0.015,0.015,0.0149,0.0149,0,0,0,0,0,0,0,0.0219,0.0218,0.022,0.0223,0.0222,0.0201,0.02,0.0188,0.0183,0.0196,0.0195,0.0193,0.017,0.0162,0.016,0.0142,0.015,0.0149,0.0149,0.0148,0.0129,0.0129,0,0,0,0,0,0,0.0227,0.0219,0.0221,0.0219,0.0221,0.0202,0.02,0.0205,0.0183,0.018,0.0193,0.0192,0.0164,0.0162,0.0159,0.0171,0.0149,0.0148,0.0147,0.0128,0.0129,0.0129,0,0,0,0,0,0,0.0227,0.0228,0.0222,0.0219,0.0217,0.0202,0.0207,0.0204,0.0201,0.0181,0.0178,0.0194,0.0164,0.0161,0.0157,0.0169,0.0147,0.0146,0.0128,0.0128,0.0129,0.018,0,0,0,0,0,0,0.0227,0.0228,0.0236,0.022,0.0217,0.022,0.0207,0.0204,0.02,0.0199,0.0181,0.0178,0.0164,0.0159,0.0156,0.0167,0.0145,0.0128,0.0128,0.0129,0.0178,0.0182,0.0185,0,0,0,0,0,0.0227,0.0239,0.0237,0.0237,0.0229,0.022,0.0217,0.0205,0.02,0.0202,0.019,0.0178,0.0159,0.0158,0.0154,0.0166,0.0128,0.0128,0.0129,0.0176,0.0181,0.0185,0,0,0,0,0,0,0.0238,0.0238,0.0235,0.0246,0.0237,0.0218,0.022,0.0209,0.0201,0.0203,0.0182,0.0178,0.0177,0.0163,0.0162,0.016,0.0141,0.0141,0.0178,0.0183,0.0186,0.0196,0.0144,0,0,0,0,0,0.0246,0.0258,0.0247,0.0256,0.0254,0.0238,0.0233,0.0226,0.0215,0.0211,0.0198,0.0185,0.0174,0.0173,0.0158,0.016,0.0132,0.0164,0.0168,0.0171,0.0175,0.0138,0.0138,0.013,0.013,0.013,0,0,0.0252,0.0254,0.026,0.0259,0.0253,0.0257,0.0235,0.0235,0.024,0.021,0.0215,0.0196,0.0176,0.0177,0.0175,0.0169,0.0158,0.0171,0.0175,0.0177,0.0138,0.0139,0.014,0.0131,0.0131,0.0131,0,0,0.0271,0.0274,0.0289,0.0287,0.0284,0.0275,0.0278,0.0264,0.026,0.026,0.0239,0.0228,0.0214,0.0202,0.0194,0.0208,0.0175,0.0205,0.0238,0.0201,0.0202,0.0202,0.0167,0.0163,0.0212,0.0212,0.0212,0,0.0279,0.0299,0.0291,0.0303,0.0308,0.0287,0.0302,0.0294,0.028,0.0281,0.027,0.0245,0.0226,0.0225,0.023,0.0217,0.0191,0.0225,0.0207,0.0206,0.0205,0.0169,0.0165,0.0214,0.0214,0.0214,0.0214,0,0.0307,0.0324,0.0333,0.0346,0.0348,0.0358,0.0348,0.0349,0.0342,0.0331,0.0325,0.0296,0.0282,0.0273,0.0258,0.0248,0.0229,0.0212,0.0198,0.0209,0.017,0.0165,0.0218,0.0217,0.0216,0.0216,0,0,0.0325,0.0349,0.0354,0.0373,0.0375,0.0382,0.0393,0.0396,0.0409,0.0386,0.0393,0.0368,0.0347,0.0335,0.031,0.0282,0.0251,0.0252,0.0249,0.0222,0.017,0.0165,0.0158,0.023,0.023,0.0229,0.0146,0,0.0351,0.0391,0.0393,0.0431,0.0452,0.0443,0.0457,0.0457,0.045,0.0449,0.0412,0.0408,0.0372,0.037,0.0334,0.0271,0.0238,0.0275,0.0159,0.0156,0.0153,0.0152,0.0227,0.0142,0.014,0.0139,0.0139,0,0.0379,0.0406,0.0452,0.0487,0.0495,0.0516,0.0541,0.0551,0.0539,0.0531,0.0511,0.0476,0.0437,0.0403,0.0299,0.0324,0.0254,0.02,0.0195,0.0169,0.0141,0.0126,0.0128,0.0129,0.0129,0.013,0.0131,0,0.0406,0.0447,0.0492,0.0503,0.0536,0.0561,0.0578,0.0582,0.06,0.0586,0.0589,0.0528,0.0504,0.0408,0.0296,0.0296,0.0173,0.0155,0.0083,0.0081,0.0088,0.0089,0.0077,0.0077,0.0078,0.0078,0.0078,0,0.0435,0.0471,0.0515,0.0542,0.0601,0.0606,0.066,0.0664,0.0673,0.0698,0.0639,0.0635,0.0504,0.0419,0.0309,0.018,0.0177,0.0087,0.006,0.0111,0.0115,0.0083,0.0085,0.0075,0.0075,0.0076,0.0077,0,0.0457,0.0484,0.0542,0.0595,0.062,0.0663,0.0722,0.0752,0.0755,0.0783,0.0782,0.0709,0.0601,0.0462,0.0301,0.0205,0.0077,0.003,0.0098,0.0075,0.0005,0.001,-0.0058,-0.0059,-0.006,-0.006,-0.0061,0,0.0471,0.0505,0.0587,0.063,0.0662,0.0727,0.0772,0.0797,0.0828,0.083,0.0842,0.0754,0.0688,0.0458,0.0305,0.0091,0.006,-0.0015,-0.0007,0.0011,-0.0009,-0.0002,0.0004,-0.0062,-0.0062,-0.0062,-0.0063,0,0.0496,0.053,0.0579,0.0669,0.0733,0.0801,0.0866,0.0895,0.092,0.0923,0.0891,0.0775,0.065,0.0467,0.0299,0.0146,0.0029,-0.0023,-0.0023,-0.0016,0.0005,-0.0012,-0.0005,-0.0065,-0.0065,-0.0065,-0.0064,0,0.0516,0.0551,0.062,0.0699,0.078,0.0852,0.0885,0.0921,0.095,0.0948,0.0936,0.0802,0.0724,0.0496,0.0342,0.0189,0.0149,0.009,0.0084,0.0085,0.0149,0.0199,0.0165,0,0,0,0,0,0.0528,0.0569,0.064,0.0725,0.0806,0.0856,0.0936,0.0959,0.0988,0.0973,0.0957,0.0842,0.0619,0.0523,0.037,0.0319,0.0115,0.0132,0.0042,-0.0079,-0.0076,-0.0026,0,0,0,0,0,0,0.0534,0.0601,0.0636,0.0734,0.0792,0.0881,0.0935,0.0956,0.0948,0.0953,0.084,0.079,0.0576,0.0704,0.0361,0.0316,0.0234,0.0032,0.0028,-0.0081,-0.0078,-0.0076,-0.0023,0,0,0,0,0]}]]